GFSFLT2_925_spd_000.txt.gz
Wind_Speed
23 17 18 19 19 18 19 13 10 16 15 15 15 11 12 13 12 13 15 15 15 16 17 18 19 20 20
19 16 15 18 18 18 14 11 8 11 13 15 8 11 10 9 13 14 15 15 16 16 17 19 20 21 22
13 12 16 15 14 12 12 10 9 12 10 8 9 9 11 13 14 14 15 16 16 16 17 18 20 21 22
14 9 9 12 11 14 11 11 11 8 7 9 10 13 14 13 14 14 15 15 14 15 17 19 20 21 21
8 7 8 8 14 10 10 9 9 7 6 9 11 11 10 12 13 12 14 14 13 16 18 20 19 21 23
12 9 15 13 12 11 8 6 3 6 5 10 10 11 11 12 13 16 15 12 15 17 20 20 22 23 24
17 17 16 19 14 12 10 8 6 4 5 11 7 11 11 13 15 16 14 14 16 19 19 22 23 23 23
23 23 19 18 16 11 11 8 4 5 4 5 6 12 13 14 12 12 12 15 18 19 21 22 21 20 20
17 18 18 18 16 15 12 9 4 6 7 8 8 14 14 10 8 10 15 17 17 19 21 19 18 18 19
21 19 17 15 14 9 15 11 5 4 7 5 7 9 6 5 7 15 14 13 17 19 19 17 17 16 16
23 21 16 14 10 10 12 10 8 6 5 4 4 6 5 9 13 15 13 16 17 17 14 16 17 17 18
20 17 17 14 11 11 10 9 7 6 4 5 5 6 8 12 9 12 17 18 16 14 15 19 19 17 17
17 15 16 15 13 12 9 7 8 8 8 9 10 10 10 12 16 22 16 15 19 14 19 19 20 18 18
22 16 14 17 12 10 8 7 6 5 8 9 10 10 14 19 19 22 17 11 16 20 20 22 21 18 18
22 19 16 16 12 11 8 7 6 4 5 6 7 12 18 21 16 14 14 16 18 20 21 23 22 19 19
21 19 18 17 14 11 8 7 6 4 5 6 8 13 9 8 14 14 14 17 19 21 21 21 24 21 18
22 19 19 16 15 12 9 7 5 4 4 4 5 7 6 6 9 13 16 20 22 22 20 21 24 27 21

GFSFLT2_925_spd_003.txt.gz
Wind_Speed
25 24 27 28 25 21 21 19 15 13 13 15 17 19 23 19 14 13 13 15 15 15 16 16 17 19 21
26 23 26 26 23 21 21 16 16 15 15 15 17 21 21 13 13 14 14 16 15 15 15 16 18 18 20
20 18 20 21 20 21 21 20 16 17 16 16 17 16 13 14 16 16 15 16 16 15 15 17 17 19 21
19 11 9 14 20 17 13 17 15 14 11 13 14 14 16 16 16 16 16 15 15 15 15 16 17 19 19
12 5 8 7 15 16 16 14 16 17 14 13 14 13 14 13 15 16 15 14 16 15 16 17 18 20 20
16 8 18 18 15 19 16 7 3 16 12 14 13 15 13 13 15 16 16 17 15 16 17 18 19 20 22
25 24 18 29 23 21 17 12 8 11 9 8 10 13 12 13 16 17 17 16 15 18 19 19 19 21 21
33 27 25 27 31 25 24 16 10 9 7 2 4 9 10 14 17 17 14 13 16 19 19 19 20 21 19
24 20 20 24 28 26 20 16 3 6 10 3 3 7 12 16 12 11 11 15 19 18 18 20 21 18 20
18 20 24 22 24 22 22 12 5 3 11 8 1 4 4 5 6 10 14 16 16 17 19 19 18 17 19
27 26 25 25 15 14 17 20 11 3 12 8 2 1 4 7 11 13 12 14 17 18 17 17 15 16 20
19 19 21 20 20 19 14 11 10 12 13 9 4 3 3 5 5 9 15 21 18 16 14 16 17 18 19
21 17 19 24 20 20 16 11 9 10 9 7 7 7 9 9 10 14 15 10 21 18 13 18 20 19 21
22 27 26 26 18 17 14 11 7 5 5 8 10 10 13 16 19 23 20 11 13 20 19 21 22 22 22
31 24 22 21 17 17 13 12 5 9 8 7 7 10 17 23 20 22 22 20 19 20 20 22 24 23 23
25 28 22 20 20 13 13 10 8 7 6 4 5 9 10 11 23 22 18 18 19 20 21 21 25 20 19
21 24 23 21 18 14 12 10 7 6 4 3 2 6 3 3 10 19 20 18 19 21 21 20 23 26 22

GFSFLT2_925_spd_006.txt.gz
Wind_Speed
30 28 32 37 39 39 38 35 33 31 30 28 26 24 20 18 15 12 11 9 11 12 12 13 14 15 16
30 25 28 29 34 36 36 33 34 31 28 24 22 20 18 16 13 11 10 10 11 12 13 13 14 15 17
26 27 24 23 24 28 31 31 29 29 25 23 21 18 17 14 11 12 12 12 12 14 14 14 15 16 17
27 24 13 16 22 19 16 26 27 25 26 24 20 18 15 12 12 14 14 14 14 14 14 15 16 16 18
18 14 9 7 17 21 21 23 25 27 27 24 20 19 18 14 15 15 14 15 14 14 16 17 16 18 19
19 10 18 22 20 22 18 7 4 26 28 22 18 19 18 15 16 14 15 15 15 17 17 17 17 19 20
25 25 27 31 28 21 23 15 8 15 24 8 16 21 18 17 15 16 17 16 16 17 17 18 20 21 21
37 38 35 28 39 35 26 17 14 16 17 3 12 14 15 16 16 16 15 17 17 16 17 19 20 21 21
39 41 38 38 37 30 22 17 3 6 16 4 7 7 11 16 19 17 14 14 14 15 17 19 19 20 21
20 18 20 20 25 33 34 12 5 2 14 13 8 6 2 6 6 9 11 12 15 16 16 18 18 19 21
18 18 23 23 20 18 24 28 14 4 13 17 8 7 3 1 5 12 12 12 13 16 19 19 17 16 18
17 18 21 21 21 20 19 16 14 11 22 18 8 9 6 1 2 4 6 13 16 15 12 12 16 16 17
15 14 21 27 27 23 19 18 15 16 16 14 8 11 10 7 3 4 7 3 17 17 11 11 16 19 22
13 19 25 23 26 24 19 18 15 11 9 6 7 9 10 13 13 14 14 6 10 19 19 20 20 20 23
15 16 19 17 21 21 18 14 6 10 9 9 9 7 10 14 11 18 17 17 20 19 19 21 22 21 22
15 16 17 15 15 18 18 12 10 11 9 11 9 4 5 10 21 18 13 19 19 18 19 19 20 21 21
15 15 16 14 14 14 14 13 11 11 11 9 5 4 1 1 7 12 19 20 22 18 20 18 20 23 23

GFSFLT2_925_spd_009.txt.gz
Wind_Speed
35 35 32 36 38 41 45 49 46 45 44 44 39 43 42 34 29 25 20 19 20 19 17 17 16 16 15
34 32 33 34 38 41 43 46 47 46 48 44 37 39 30 27 27 22 20 21 20 19 18 16 15 15 15
26 34 32 31 29 33 37 40 43 45 41 38 36 33 27 24 24 22 22 23 21 19 17 15 15 15 16
27 30 33 21 28 22 16 28 34 37 35 33 35 30 27 24 24 22 23 22 21 19 17 15 15 16 16
14 22 19 4 11 21 23 26 28 30 30 30 32 32 30 26 26 23 24 21 21 19 16 16 16 17 16
17 14 21 16 20 22 21 4 4 26 26 26 34 31 31 32 25 25 23 21 20 18 17 16 17 17 16
28 26 26 28 25 25 23 19 10 15 30 17 28 24 31 29 23 23 21 20 19 18 17 17 17 17 17
33 33 34 34 27 31 32 21 10 13 25 4 18 15 26 24 21 20 21 20 19 18 18 17 17 17 18
38 41 39 40 38 22 14 8 2 6 23 7 8 10 15 19 23 20 20 19 18 19 18 16 17 17 19
33 35 36 38 38 34 25 11 4 3 17 7 9 9 3 8 20 22 20 18 18 17 16 17 17 17 19
33 30 25 21 18 27 22 19 10 2 18 18 8 7 4 5 7 14 16 18 17 17 15 15 16 17 18
21 15 11 6 7 10 14 17 14 10 33 14 10 11 7 3 2 8 13 14 14 15 18 16 13 13 15
11 4 9 15 18 19 19 20 23 24 25 14 8 17 11 5 4 5 4 6 9 12 15 14 13 12 15
2 9 16 16 15 15 17 21 21 15 11 8 8 12 8 7 7 5 9 2 5 10 9 14 17 17 19
9 10 11 13 14 18 18 11 7 7 7 8 7 5 2 5 7 13 13 14 15 14 11 16 18 19 21
8 8 10 12 14 14 16 9 7 9 7 8 8 2 2 7 16 12 11 13 12 12 14 14 18 24 19
8 10 12 14 15 12 11 10 8 10 9 10 6 4 2 1 3 13 11 12 14 14 19 18 16 20 20

GFSFLT2_925_spd_012.txt.gz
Wind_Speed
29 32 34 35 39 44 45 47 47 50 49 50 51 50 49 46 44 46 42 34 30 27 25 23 21 21 22
30 29 31 34 37 37 40 48 42 45 45 51 49 48 47 47 43 44 40 33 29 27 25 20 20 22 22
23 30 30 31 32 36 34 40 39 46 45 48 45 48 49 45 43 45 37 30 27 25 21 19 22 22 22
22 25 26 28 27 20 21 26 30 35 44 42 40 43 43 43 42 37 33 30 26 26 22 21 23 22 21
16 21 19 18 12 20 20 26 29 35 33 33 32 35 40 39 37 35 32 29 27 23 24 22 23 22 22
18 14 23 26 25 24 22 11 8 20 23 29 32 31 31 34 39 33 30 27 23 27 24 23 24 23 21
29 29 28 31 30 26 24 19 13 17 25 14 27 25 28 33 31 30 26 26 26 27 24 25 24 22 21
33 39 38 38 35 37 33 30 15 18 26 6 18 16 25 29 29 26 25 25 25 25 26 25 22 20 21
40 43 45 45 43 38 27 9 6 6 24 9 8 7 16 25 27 23 24 22 25 26 25 23 21 20 20
41 38 38 38 38 33 29 12 7 3 15 9 8 8 3 7 23 23 22 22 24 24 23 22 21 21 21
35 33 31 29 30 29 30 28 10 2 16 18 6 6 4 4 8 22 23 25 23 22 21 21 20 21 21
29 25 24 20 20 13 7 5 7 7 27 18 8 8 5 2 3 12 21 21 22 24 23 21 17 19 20
21 23 23 21 8 9 13 18 23 22 18 11 21 20 13 5 4 7 10 12 19 21 20 20 22 21 19
23 26 16 2 2 8 10 14 19 18 19 19 18 15 9 13 10 8 12 5 17 17 17 16 17 18 18
23 18 7 3 5 9 9 8 6 6 12 15 12 11 10 11 6 11 12 8 11 15 12 12 16 18 19
21 13 6 5 5 6 9 9 6 9 10 8 8 5 3 2 4 9 8 8 10 11 13 10 14 17 17
18 12 6 6 6 7 7 7 7 10 10 8 5 3 3 2 3 8 7 8 9 11 13 15 9 12 12

GFSFLT2_925_spd_015.txt.gz
Wind_Speed
30 31 31 31 35 36 41 43 42 45 49 52 52 55 52 52 49 48 48 49 49 45 46 40 37 32 29
34 31 30 30 31 34 35 35 37 42 43 46 50 53 54 51 49 47 47 47 47 45 48 42 37 33 28
25 31 33 32 29 29 31 35 34 35 41 45 45 49 48 49 49 47 48 46 47 50 48 40 33 30 28
25 29 30 32 30 28 24 27 28 31 35 41 42 42 46 42 43 48 48 45 49 51 47 42 35 29 26
18 22 23 23 20 28 28 30 32 28 30 33 35 33 39 41 41 44 47 51 47 47 39 35 31 30 26
22 16 24 27 29 26 26 13 16 27 23 26 30 29 32 32 35 42 41 47 44 39 36 32 30 28 26
28 29 31 33 33 31 28 26 17 29 21 12 19 26 29 32 34 36 41 40 35 36 35 31 31 28 26
35 38 38 39 35 37 36 33 38 37 28 14 23 19 21 29 30 33 35 34 33 32 30 31 29 27 26
36 37 42 43 41 39 30 17 16 18 19 18 10 4 8 15 20 31 33 30 30 29 28 27 26 26 26
41 38 34 36 36 36 35 14 14 13 15 11 8 8 2 5 14 25 26 25 25 25 26 27 28 26 27
34 34 34 32 31 31 30 24 13 13 23 21 6 7 3 3 5 18 26 23 22 24 24 26 26 27 26
29 27 29 29 30 30 30 26 22 25 31 28 9 9 4 2 3 11 20 22 25 23 24 24 25 24 25
23 27 28 31 31 22 10 2 6 8 3 7 9 15 7 4 4 6 10 10 17 23 24 24 25 25 22
26 29 29 24 19 16 6 2 6 12 18 14 19 19 10 12 15 11 13 4 19 23 25 22 20 21 23
26 26 24 20 14 10 2 3 3 1 7 16 19 17 17 13 8 13 12 8 17 21 16 15 16 19 20
26 24 20 17 10 5 2 5 3 5 6 9 7 5 6 15 14 15 9 11 16 19 15 11 12 16 17
24 21 19 14 7 0 5 6 5 7 6 5 6 2 2 2 3 4 10 9 16 13 15 11 6 12 16

GFSFLT2_925_spd_018.txt.gz
Wind_Speed
31 28 37 34 36 30 32 35 38 39 42 42 44 44 45 46 47 47 47 49 48 48 50 48 46 45 50
32 34 32 31 33 38 33 34 38 38 39 43 44 42 42 42 45 46 47 46 44 48 48 50 48 49 51
27 33 33 30 28 31 32 31 31 33 37 38 37 37 39 39 39 41 43 45 47 45 44 48 50 52 51
24 28 29 30 26 26 27 28 32 33 33 35 37 41 42 41 39 38 40 42 44 41 40 48 54 54 54
19 22 24 25 21 26 27 32 33 30 31 32 33 35 35 36 34 32 36 41 44 41 42 45 52 53 53
23 15 25 30 30 29 26 13 17 26 25 26 33 31 30 31 30 30 31 34 37 38 41 40 41 53 54
31 29 28 32 36 33 28 23 17 31 30 23 28 32 34 35 35 37 40 33 35 38 39 39 43 44 42
35 36 34 38 34 30 36 39 35 35 30 16 26 28 27 31 38 39 37 33 35 35 38 43 39 38 35
37 40 40 37 40 36 26 14 14 18 29 23 24 23 20 25 30 33 32 28 30 37 36 34 35 34 29
36 33 32 31 32 30 29 12 10 11 20 13 17 8 3 6 13 20 20 28 34 34 35 35 35 32 28
34 33 32 29 26 27 26 24 16 13 26 23 12 6 2 0 2 3 21 25 26 28 29 32 31 30 27
30 28 28 28 28 31 32 30 24 20 26 24 11 12 4 2 2 4 18 24 26 23 24 26 26 27 26
25 27 28 33 32 31 27 24 17 11 13 13 14 11 8 2 4 3 8 13 25 26 21 23 24 28 26
28 32 34 28 28 26 19 13 6 6 12 13 5 10 5 7 9 6 13 4 20 24 25 21 23 28 24
30 30 32 24 23 21 14 8 1 2 7 15 21 24 18 13 8 13 14 13 19 23 22 16 17 22 24
31 29 26 21 19 15 9 2 2 4 6 10 11 7 8 18 15 13 13 9 13 18 19 9 9 14 16
31 30 23 19 17 9 5 6 4 6 8 10 7 1 3 3 5 9 9 10 13 12 15 8 7 16 18

GFSFLT2_925_spd_021.txt.gz
Wind_Speed
32 38 31 33 36 37 34 39 34 33 37 37 38 39 40 39 39 39 43 44 45 39 36 36 42 46 48
35 29 35 35 34 36 33 32 37 36 34 33 37 40 37 33 34 35 36 40 41 41 41 39 44 47 49
29 34 35 34 34 33 34 34 35 33 33 32 34 33 38 37 36 34 33 34 36 38 38 40 39 40 39
26 28 30 33 30 29 30 31 33 32 36 36 35 35 37 35 33 35 35 33 34 36 37 38 40 45 43
23 25 25 25 24 31 28 32 34 34 34 32 31 31 27 31 33 28 28 29 29 31 29 31 37 37 41
27 16 26 32 33 30 28 12 16 31 32 27 30 33 34 34 35 33 35 33 32 28 32 32 34 38 40
31 28 30 35 35 34 30 28 16 29 32 24 34 32 35 36 39 40 35 33 32 34 35 36 33 34 38
33 36 37 39 39 37 33 32 34 35 29 13 29 30 34 34 36 39 33 32 34 36 35 36 34 35 36
38 40 39 41 40 34 25 14 14 20 23 20 22 28 32 31 31 35 35 34 35 37 37 35 27 23 27
37 35 33 33 35 31 31 13 13 14 13 9 19 18 6 8 18 21 23 27 31 31 27 31 39 35 34
34 32 33 30 31 28 31 25 19 14 27 22 13 13 7 5 7 15 20 23 16 24 35 36 38 44 32
30 29 29 30 31 32 35 34 33 33 31 18 10 14 8 6 4 3 1 9 28 28 29 27 25 28 34
26 29 31 35 36 33 34 28 28 25 16 13 17 20 20 8 3 3 2 11 23 29 26 26 26 28 28
29 33 34 32 30 32 23 23 16 9 5 8 11 9 5 7 6 5 6 3 17 24 27 25 25 24 22
30 30 30 29 28 22 21 14 4 3 4 8 12 15 14 7 6 9 12 15 20 24 29 23 22 25 23
31 30 27 26 23 19 12 6 2 4 6 8 9 6 6 21 19 12 15 15 18 24 23 19 13 21 24
30 29 28 23 19 11 7 5 4 7 8 9 7 2 5 5 5 19 10 10 17 18 18 15 10 14 24

GFSFLT2_925_spd_024.txt.gz
Wind_Speed
34 39 42 38 37 39 38 39 38 36 38 40 40 42 42 39 39 38 34 32 34 34 33 37 33 38 36
35 36 39 40 38 38 38 37 39 37 39 41 41 40 39 39 38 37 37 38 34 31 31 33 31 33 31
30 34 37 37 37 36 37 37 36 39 39 38 39 37 41 40 38 37 36 34 34 36 32 31 30 31 28
29 30 32 36 34 32 30 33 33 35 35 37 37 39 39 38 36 36 34 30 29 30 31 31 31 33 33
26 26 26 29 26 33 28 34 36 35 36 34 33 33 32 36 31 37 34 30 28 28 25 26 29 31 31
24 16 30 32 33 31 30 14 17 36 31 33 34 31 33 36 35 34 35 36 35 34 32 31 27 25 25
32 31 33 35 36 36 34 30 17 36 31 24 36 30 32 33 33 38 40 39 36 34 33 30 28 27 28
34 37 37 40 38 36 36 38 37 35 28 14 25 28 31 32 34 36 37 38 35 34 33 30 29 30 30
38 42 42 42 40 35 27 15 16 19 25 22 25 26 23 28 33 34 32 32 30 28 28 30 30 29 27
37 36 35 34 34 31 28 13 15 15 21 13 20 21 11 21 13 17 19 19 20 24 26 27 28 24 15
33 33 32 31 30 29 29 28 22 14 29 27 18 19 10 11 23 25 22 24 25 30 25 23 19 31 26
30 29 30 31 32 34 36 36 35 36 38 33 20 13 9 10 11 17 15 21 17 12 23 24 25 27 32
27 29 31 36 37 34 33 33 34 33 29 18 11 16 17 10 9 9 5 9 8 26 26 25 25 27 32
28 33 35 33 31 31 28 28 20 14 5 9 10 13 16 18 17 6 3 2 6 22 28 29 28 27 27
31 31 31 30 28 29 24 15 8 6 9 9 9 11 14 4 1 4 8 7 12 23 29 25 24 29 30
31 29 27 26 25 19 15 10 5 8 9 12 13 8 4 15 21 9 11 11 16 22 23 23 20 26 28
29 28 27 23 21 16 14 12 8 10 11 12 12 5 5 5 6 23 10 14 20 19 18 17 16 19 27

GFSFLT2_925_spd_027.txt.gz
Wind_Speed
37 38 40 38 38 34 37 36 36 40 42 43 44 43 44 47 47 44 41 38 36 34 33 34 32 33 32
36 37 38 42 38 37 33 34 36 41 44 45 44 47 44 44 43 43 41 39 36 34 32 33 34 28 29
31 37 38 37 37 36 33 36 40 37 38 39 41 42 42 43 42 42 41 38 35 33 30 29 31 30 30
30 31 33 36 31 30 34 33 35 33 37 42 41 40 40 40 41 40 37 37 33 31 27 28 23 28 29
26 28 23 27 25 32 30 37 38 33 35 36 33 31 33 37 38 35 36 34 32 30 28 29 30 27 22
26 13 25 31 34 29 30 19 19 28 32 38 33 38 35 34 37 37 35 37 37 34 33 32 31 30 29
31 31 32 36 37 35 33 29 21 39 34 28 29 34 28 33 30 35 37 34 33 34 34 33 31 29 28
34 36 38 40 38 37 37 38 37 34 29 15 29 27 33 31 29 32 32 34 33 34 33 32 31 29 27
39 42 42 41 39 38 28 15 16 19 23 27 28 27 29 32 32 31 25 18 22 27 26 28 28 27 26
35 35 35 35 35 33 31 14 14 15 25 21 24 23 11 25 21 25 24 25 26 25 22 19 21 22 22
33 33 32 31 31 31 31 31 23 14 34 29 22 22 13 11 21 21 26 26 24 25 23 23 25 24 22
30 30 30 31 33 34 37 37 36 36 40 37 22 20 10 9 10 17 21 26 23 24 19 22 22 23 25
26 29 32 35 37 35 34 34 33 34 34 28 12 14 14 7 8 12 13 11 16 12 15 23 21 25 25
28 32 33 31 32 32 29 27 18 14 19 15 14 13 14 17 14 9 14 3 11 10 21 28 27 25 24
30 30 30 29 29 31 19 18 11 9 14 17 18 14 14 19 4 2 4 5 10 9 25 23 27 24 28
29 28 26 26 25 25 22 20 10 12 13 17 18 12 6 4 25 11 10 11 15 19 21 22 21 24 28
28 27 27 25 24 20 20 17 12 14 14 14 15 6 5 4 9 26 9 13 20 22 22 22 20 21 31

GFSFLT2_925_spd_030.txt.gz
Wind_Speed
39 38 39 41 41 36 34 33 36 38 39 39 45 49 45 45 43 44 45 45 42 41 42 41 39 37 37
37 37 37 40 41 41 36 31 34 32 38 45 44 44 43 41 45 46 46 43 41 39 39 39 40 39 38
32 37 38 38 40 39 32 31 35 33 40 41 40 41 43 42 41 41 41 41 40 39 39 37 38 37 36
30 28 34 37 32 30 32 32 36 32 37 39 37 39 39 39 39 39 40 42 40 39 38 35 36 35 33
26 32 22 30 26 33 31 37 37 31 35 34 30 33 37 37 39 37 37 35 35 35 36 35 32 30 34
25 19 29 33 31 32 31 23 18 25 27 36 31 37 34 33 33 38 34 37 34 32 32 35 33 35 34
34 32 34 34 36 37 32 27 21 32 33 30 30 32 31 29 35 37 38 40 35 33 33 32 31 32 36
35 37 37 40 38 36 37 37 34 31 28 17 27 27 33 33 35 37 38 37 37 35 33 35 34 32 34
37 39 41 41 40 39 29 20 15 20 28 28 29 29 30 33 36 36 32 22 27 26 27 25 29 30 35
32 36 35 35 35 33 31 13 14 14 30 21 25 24 10 25 26 20 30 26 26 30 28 26 26 25 28
33 32 32 31 31 31 32 30 25 14 38 31 23 22 13 9 16 23 23 26 26 28 29 28 28 26 18
30 28 29 30 33 35 38 37 35 35 40 34 21 20 8 7 8 18 23 27 25 27 27 28 26 28 27
26 28 30 33 34 33 34 33 32 27 21 24 20 19 14 6 8 12 12 12 24 19 14 15 22 21 22
28 31 30 28 29 29 27 25 25 22 23 21 20 18 13 15 18 10 16 4 16 15 10 17 20 17 19
28 28 27 27 28 29 23 24 16 15 18 22 24 17 13 17 8 14 9 6 14 14 14 24 26 22 23
28 27 26 27 27 28 23 20 14 16 15 19 21 13 4 4 13 14 11 9 15 20 19 20 21 26 30
27 28 28 26 27 22 22 19 16 13 15 15 15 7 6 6 10 26 11 13 18 22 22 23 19 24 32

GFSFLT2_925_spd_033.txt.gz
Wind_Speed
37 36 36 38 36 32 31 33 36 39 39 37 40 44 44 47 47 46 46 43 42 43 43 43 45 43 44
39 35 37 39 38 38 32 26 32 35 37 41 46 48 49 43 44 42 43 43 44 43 44 44 43 42 42
31 39 38 31 38 32 32 34 35 34 38 42 41 41 43 42 41 42 42 42 41 40 40 38 40 41 41
31 27 34 32 24 37 34 31 32 35 38 39 39 39 40 39 42 44 44 43 42 42 41 40 41 41 42
27 30 22 31 27 33 32 36 34 35 38 31 29 30 35 40 41 41 40 38 37 37 39 38 38 39 38
23 20 30 30 33 33 33 22 13 25 28 35 32 36 35 34 37 38 39 39 39 41 38 37 36 35 35
32 31 32 35 37 31 27 29 24 35 33 30 31 32 33 33 36 39 39 41 41 40 38 36 39 34 34
31 35 36 36 38 36 35 34 32 33 30 15 31 31 34 34 38 39 41 40 39 38 37 37 36 35 36
34 35 39 38 37 35 26 21 15 23 34 25 29 28 32 35 37 38 36 32 31 26 30 29 27 28 32
33 34 34 34 34 31 30 15 13 14 31 18 24 21 8 24 27 27 30 31 33 32 31 29 30 30 29
32 32 30 29 31 30 31 29 24 16 34 31 22 16 12 9 17 22 28 30 29 28 30 30 30 30 25
28 28 29 30 32 34 35 35 34 35 40 35 22 17 9 10 11 21 26 28 26 27 26 23 24 29 31
25 28 30 33 35 32 32 32 33 31 31 32 29 26 16 8 8 15 17 16 19 24 24 22 22 22 19
27 31 31 29 29 29 29 30 25 28 27 25 23 20 17 17 16 12 24 6 17 19 14 12 21 23 20
29 29 29 28 28 29 25 25 16 17 21 24 28 21 11 17 10 18 16 13 17 16 10 13 19 13 21
29 27 26 27 27 28 24 21 15 18 15 21 20 17 7 7 11 16 14 11 16 19 17 17 16 22 18
27 27 26 25 27 22 22 20 17 15 15 19 15 5 5 5 11 38 14 17 17 22 23 23 18 25 31

GFSFLT2_925_spd_036.txt.gz
Wind_Speed
36 33 34 35 31 28 29 32 36 36 36 45 46 47 48 47 47 47 48 49 48 47 46 46 45 44 43
35 37 37 36 34 33 29 25 29 39 41 41 44 43 44 44 44 44 44 45 45 45 45 45 45 45 45
33 38 37 31 35 26 29 35 32 37 38 39 39 41 42 42 43 43 43 43 43 42 43 43 44 43 43
31 30 29 33 25 31 33 30 34 36 36 37 38 42 43 42 44 45 44 43 44 45 46 46 46 43 43
28 29 21 32 26 31 32 35 34 32 29 37 34 33 37 41 42 43 43 42 41 41 41 42 43 42 41
20 22 28 30 32 33 31 19 18 30 24 34 34 36 37 35 38 40 41 41 41 40 40 41 41 40 39
28 29 31 33 32 28 31 27 25 35 29 30 32 32 35 35 37 39 40 41 41 41 40 40 40 40 41
30 34 34 36 37 32 33 33 33 34 27 14 31 33 35 36 37 39 40 39 39 40 39 39 40 40 40
30 35 38 34 35 33 25 21 15 24 30 24 29 29 33 36 36 32 32 33 35 35 35 36 38 36 38
33 32 33 33 32 30 30 17 11 15 26 19 26 23 10 27 22 25 28 31 33 34 35 35 33 29 27
30 31 31 30 31 30 30 28 25 20 38 32 26 27 15 12 23 25 30 33 31 31 33 33 33 32 22
27 28 29 31 33 35 36 36 34 35 43 39 25 25 14 13 13 22 27 30 29 29 28 27 27 31 34
25 28 30 34 35 33 34 33 32 33 33 32 30 28 21 8 9 16 19 22 27 27 25 24 23 22 22
27 31 31 30 31 30 30 31 28 28 27 26 25 25 20 18 17 13 27 7 20 24 20 20 23 23 23
28 29 29 28 29 30 28 27 19 20 23 26 31 27 20 20 10 20 18 16 19 20 11 6 16 21 22
28 27 27 27 27 29 27 23 18 21 19 24 25 23 16 9 10 21 17 15 19 22 16 12 11 8 21
27 27 27 26 27 25 24 22 19 19 20 22 19 9 7 6 12 31 20 21 19 21 22 24 18 29 25

GFSFLT2_925_spd_039.txt.gz
Wind_Speed
37 34 37 36 34 32 32 33 36 37 37 42 49 44 42 43 43 44 44 44 45 46 45 46 47 45 48
34 39 37 38 37 33 28 23 29 39 42 42 42 43 43 43 42 41 43 45 44 44 44 45 46 46 46
33 36 38 33 32 28 30 32 32 37 38 39 40 40 40 42 44 45 45 45 45 44 44 44 44 44 45
31 32 31 26 31 31 32 31 35 33 34 38 38 41 44 44 42 42 41 42 43 44 44 45 44 44 44
25 22 30 28 27 31 32 34 31 29 33 36 31 33 37 39 39 40 39 39 40 41 41 42 43 43 44
25 23 26 29 34 32 27 25 15 26 22 33 31 35 35 35 37 38 39 40 41 41 41 42 42 42 42
29 30 32 34 31 34 30 28 27 36 31 29 32 34 34 35 37 39 39 40 41 41 40 40 41 41 41
30 34 31 37 34 31 35 34 32 33 28 15 32 34 35 36 39 40 40 39 38 37 36 38 39 40 40
26 35 35 33 33 33 26 23 14 26 32 25 27 29 35 39 38 33 32 34 35 36 37 38 37 36 38
32 32 32 31 30 28 29 19 14 14 26 16 26 23 8 26 25 32 32 33 33 34 34 36 37 35 30
28 30 29 29 29 28 29 28 26 21 39 32 21 26 16 12 26 28 30 33 32 33 34 34 35 36 28
27 27 28 30 33 34 35 33 32 35 43 39 25 26 18 14 14 22 30 31 30 31 30 29 28 30 35
24 27 29 33 36 33 33 33 32 33 31 32 30 30 25 13 11 20 23 23 28 29 27 26 24 23 22
25 30 30 29 32 30 29 31 29 30 30 28 25 28 24 22 21 16 28 9 24 26 22 19 21 23 22
26 28 28 28 29 30 27 27 20 21 29 30 32 28 26 24 13 21 21 19 24 25 13 2 13 19 21
27 26 26 26 27 29 27 23 19 23 23 27 29 26 24 8 12 20 23 20 24 25 19 7 3 14 19
27 26 25 26 26 26 25 23 21 22 22 23 23 12 10 8 10 28 23 20 22 20 22 15 8 8 18

GFSFLT2_925_spd_042.txt.gz
Wind_Speed
35 36 37 35 34 31 30 33 35 38 41 43 44 44 44 45 46 45 45 44 43 43 42 43 44 46 45
34 38 36 37 35 31 28 32 34 36 38 40 43 44 44 43 44 44 43 43 42 42 43 43 43 44 45
31 33 37 31 28 32 32 34 33 35 39 39 38 40 41 42 42 43 43 44 44 44 44 43 44 44 43
29 27 21 33 31 31 30 32 32 34 35 35 39 40 41 42 42 42 41 41 41 41 41 41 42 43 42
18 29 28 28 27 31 30 34 28 37 33 30 34 35 38 40 40 40 39 38 38 38 40 40 40 40 42
25 23 28 29 32 28 27 28 15 25 22 35 33 37 36 36 38 38 39 40 41 41 42 41 41 41 41
28 28 31 33 30 34 29 27 27 36 34 32 35 35 36 37 39 40 40 41 41 41 42 41 41 40 41
30 32 30 36 33 31 33 33 31 33 28 15 35 35 36 37 40 40 38 37 37 37 38 39 39 40 40
24 32 34 31 30 31 25 23 14 27 34 24 21 32 36 39 36 28 31 34 37 37 38 39 39 37 37
30 30 30 32 28 25 27 21 19 11 22 16 27 21 8 20 23 36 33 34 34 36 37 37 37 35 33
26 28 28 27 28 26 26 26 26 22 39 31 22 28 16 14 31 31 33 34 32 34 35 34 35 37 29
25 26 27 28 31 32 34 33 32 34 43 40 26 27 23 14 14 28 31 32 30 31 31 32 30 29 33
23 27 28 32 35 31 32 32 34 34 32 31 30 33 27 19 11 25 29 27 33 28 29 29 26 23 21
25 29 29 29 30 29 29 30 28 31 29 27 28 26 27 26 23 22 28 10 28 28 26 17 14 20 19
25 27 27 28 30 28 26 26 20 22 31 34 31 28 28 29 16 21 23 23 28 28 22 9 2 12 16
27 25 26 26 27 29 24 21 20 23 25 28 31 28 26 11 11 20 22 23 28 26 20 7 3 8 13
26 27 25 26 26 25 23 21 21 22 23 25 23 15 10 10 12 27 27 27 25 20 20 17 8 3 13

GFSFLT2_925_spd_045.txt.gz
Wind_Speed
33 34 35 33 31 30 29 33 36 36 37 38 39 40 40 41 42 43 43 43 43 44 44 44 44 43 43
35 36 35 35 32 29 37 32 33 34 35 36 40 41 40 40 40 41 42 42 42 42 42 43 43 43 43
33 35 35 29 35 32 35 31 32 34 35 36 37 37 38 39 40 42 43 43 42 42 42 44 44 45 44
29 23 30 33 31 29 31 30 32 34 35 35 37 37 38 40 41 41 41 40 40 41 41 41 42 43 43
24 28 28 27 26 30 30 32 33 35 33 28 33 36 38 37 38 38 37 36 37 39 39 40 40 41 42
25 24 29 28 31 27 27 29 17 26 29 36 32 35 35 36 38 38 40 40 40 40 41 41 41 42 42
29 29 30 32 30 31 29 27 28 35 36 33 34 34 34 37 38 39 40 39 38 38 39 39 40 42 42
28 31 29 32 33 29 31 32 31 31 28 15 36 33 35 37 41 38 37 34 35 36 37 37 37 39 41
25 29 34 29 27 27 25 22 16 25 35 23 24 32 35 38 33 26 29 36 38 37 38 38 39 40 40
28 26 24 25 24 21 23 21 20 10 18 15 27 22 8 19 25 35 30 33 34 37 37 36 36 37 35
24 26 25 24 24 22 22 23 25 21 38 28 22 28 17 19 31 29 35 34 34 34 31 31 32 33 32
24 25 25 25 26 28 29 28 28 33 40 36 26 28 25 16 16 28 39 34 30 30 30 34 34 33 34
22 24 25 29 31 27 29 27 30 31 30 30 30 33 29 23 15 29 31 28 31 26 31 28 26 24 18
23 27 28 27 28 25 25 27 25 31 27 24 27 29 28 28 24 25 29 12 34 31 30 27 19 9 12
24 26 26 26 28 26 24 25 20 21 28 32 28 27 27 28 20 22 25 26 29 31 26 21 14 6 8
25 24 24 25 26 28 23 21 20 23 24 28 30 28 25 14 9 17 24 26 31 27 23 13 9 3 6
24 25 24 25 25 24 23 21 22 22 23 25 23 16 10 11 12 19 24 29 29 25 24 19 9 2 4

GFSFLT2_925_spd_048.txt.gz
Wind_Speed
31 31 30 31 30 29 30 34 36 35 36 35 37 38 38 39 40 40 40 41 41 41 42 43 43 44 45
34 32 33 31 30 31 32 33 33 33 34 35 38 38 37 38 38 39 40 40 41 41 42 44 44 44 44
32 33 33 29 31 35 30 30 30 32 34 33 37 37 36 37 39 40 41 41 41 42 42 42 44 44 45
29 33 27 32 32 28 28 30 31 32 36 33 34 34 35 40 40 41 40 39 39 40 41 42 42 42 43
26 27 31 28 27 29 28 33 32 32 34 29 31 36 36 37 36 36 35 36 37 39 40 40 41 41 42
27 25 31 30 31 29 30 27 15 28 28 39 31 36 35 34 36 37 39 39 38 38 38 39 40 41 43
29 30 30 31 33 32 31 30 28 35 31 35 32 34 34 36 37 38 40 39 37 36 37 38 39 40 41
28 32 32 32 31 33 31 35 33 31 28 15 34 33 33 36 41 37 34 32 32 34 37 38 39 40 40
29 31 32 33 28 27 25 23 18 26 31 23 24 33 36 38 29 24 29 38 35 35 36 37 38 38 39
29 27 24 25 23 21 22 21 21 14 18 19 26 22 8 23 24 36 29 31 34 34 35 35 34 33 32
25 24 23 23 23 22 22 23 25 23 37 27 22 27 17 20 31 31 32 29 34 33 32 32 33 33 30
23 24 24 26 25 27 28 29 30 33 40 34 23 27 25 17 15 27 38 37 31 32 30 32 35 35 34
22 24 25 28 30 27 28 27 31 31 32 31 30 32 28 24 18 31 30 28 32 29 36 31 31 29 26
22 26 27 26 26 24 25 27 26 30 29 26 25 28 29 29 28 28 29 13 35 33 35 33 28 25 20
23 25 26 25 26 25 24 25 21 22 27 28 26 27 28 31 25 26 26 27 29 33 32 25 24 18 10
24 23 24 24 25 26 24 21 20 22 23 26 28 28 23 23 18 20 22 23 30 31 29 19 13 14 8
24 25 24 24 25 23 23 22 21 21 23 25 24 18 11 12 20 15 18 26 25 24 25 24 14 17 9

GFSFLT2_925_spd_051.txt.gz
Wind_Speed
24 24 30 29 30 33 29 34 33 37 37 34 35 36 37 37 37 38 39 40 40 39 38 39 39 39 40
26 28 26 28 31 31 28 32 35 30 32 36 37 37 38 38 37 37 38 38 40 40 39 39 40 41 41
30 28 29 29 28 29 33 27 27 33 32 36 37 37 37 37 37 38 39 41 40 40 40 40 40 41 41
29 30 28 25 30 25 24 28 31 31 33 36 34 35 34 38 39 38 37 36 36 37 37 38 39 39 40
27 23 28 26 24 27 27 29 37 26 32 35 28 38 35 35 36 35 34 35 36 37 38 39 39 40 40
25 25 27 27 27 27 31 27 12 29 20 40 32 36 34 34 35 37 37 37 36 37 39 40 40 40 41
28 26 27 29 32 33 30 28 29 33 30 34 33 36 34 36 34 38 40 37 34 33 34 34 35 37 38
27 26 29 33 31 28 32 32 35 31 26 17 34 37 33 36 41 36 32 30 30 34 36 35 35 36 38
27 32 33 32 29 27 25 24 17 27 28 27 25 30 37 40 29 24 28 35 34 32 33 35 35 36 37
29 29 25 25 26 25 24 21 22 18 25 18 25 22 6 22 26 34 28 31 32 33 34 34 31 31 30
25 24 26 26 26 26 26 25 26 26 37 29 23 27 17 22 30 30 35 31 32 38 33 32 33 34 34
22 25 25 27 28 30 32 32 32 34 38 35 27 27 26 20 16 32 35 37 31 33 33 31 32 33 33
22 24 25 29 33 30 31 29 32 34 33 31 30 31 29 26 23 33 31 36 35 27 34 32 32 34 30
24 27 28 28 28 27 27 28 27 32 30 26 26 28 29 30 30 30 34 17 33 30 31 35 31 30 26
24 25 27 25 27 27 26 26 23 25 30 32 28 28 30 32 28 29 29 28 28 28 30 30 28 25 24
26 25 25 25 26 27 25 23 22 23 25 27 28 27 28 23 22 23 26 25 30 29 27 23 23 27 25
24 26 26 26 27 25 25 24 23 23 25 26 23 19 12 13 29 19 21 31 28 26 24 22 21 28 27

GFSFLT2_925_spd_054.txt.gz
Wind_Speed
26 27 29 32 33 31 34 32 33 33 35 31 32 36 37 36 37 38 38 37 36 36 35 35 35 35 35
23 26 27 31 32 35 30 33 35 31 28 37 35 36 37 35 36 37 36 36 36 37 38 37 37 37 36
26 26 28 30 30 28 33 31 29 32 32 35 34 35 36 34 35 36 38 37 35 36 36 35 35 36 36
24 26 24 26 26 28 27 27 33 31 34 33 32 34 33 35 36 34 34 33 32 33 34 35 35 35 36
22 26 26 23 21 24 27 31 36 33 23 36 28 35 35 33 33 34 33 33 34 34 34 35 35 35 35
24 23 23 25 24 23 31 27 11 27 22 37 30 33 32 32 33 35 36 34 36 36 34 34 33 34 35
29 28 30 27 30 29 29 25 29 32 28 32 34 33 33 34 35 35 39 36 31 30 30 30 32 34 35
29 29 29 34 31 28 28 28 32 31 26 20 33 36 34 33 37 36 31 28 29 32 33 31 31 32 35
27 29 31 32 28 29 24 23 20 27 29 25 24 31 35 37 29 24 26 33 31 31 30 32 30 34 34
28 32 26 27 27 24 25 21 22 19 21 17 27 22 9 23 19 33 30 31 31 32 30 32 30 31 31
27 25 27 27 25 25 24 23 25 25 37 28 25 27 18 20 27 30 34 36 31 36 33 29 29 31 34
23 25 24 26 28 30 33 32 31 33 40 36 27 28 27 22 17 30 34 36 30 32 33 33 32 32 33
21 25 26 30 33 30 32 31 32 34 34 32 31 32 29 27 24 32 30 35 34 27 32 32 30 31 33
25 29 30 28 30 28 28 29 28 31 31 26 25 28 29 29 29 31 32 19 34 33 32 31 32 29 31
26 27 29 28 28 29 27 26 23 25 29 32 28 29 30 32 28 30 29 30 30 31 29 32 31 27 29
27 26 26 27 27 27 25 24 23 25 25 29 30 28 26 22 23 24 26 28 31 32 30 24 27 28 27
26 28 28 26 27 26 25 24 24 24 26 27 25 20 12 13 26 17 23 30 32 30 26 25 23 30 29

GFSFLT2_925_spd_057.txt.gz
Wind_Speed
22 24 28 31 31 33 32 31 32 29 29 30 30 33 34 34 34 34 34 34 34 34 34 34 33 33 33
22 25 26 28 31 33 31 28 31 30 28 32 31 33 33 32 32 34 33 34 35 36 36 35 34 34 33
25 25 27 29 29 28 29 31 29 28 30 31 31 29 29 33 32 32 34 33 32 32 32 33 32 32 32
21 22 23 27 27 26 26 28 33 29 29 30 26 30 31 32 32 32 31 30 30 30 32 32 33 33 33
16 20 24 23 22 25 26 31 36 30 27 26 27 33 32 31 31 31 30 31 33 33 32 32 34 33 33
20 21 24 25 24 24 28 27 12 27 18 32 28 32 31 31 30 33 35 33 31 33 31 30 29 29 29
25 24 25 28 30 28 25 21 26 34 28 30 30 31 32 32 33 34 34 32 29 27 26 28 30 31 31
26 29 29 28 26 26 27 26 29 32 27 21 31 33 31 32 35 31 28 26 26 29 31 28 28 29 30
25 25 26 29 25 26 24 21 20 25 28 24 19 28 32 33 24 23 23 30 31 29 29 29 30 28 30
25 31 29 28 23 23 25 21 22 17 16 13 25 21 9 19 16 33 32 31 29 31 30 28 28 27 27
29 27 28 27 26 26 26 24 25 24 34 26 22 26 17 21 26 28 33 36 33 34 32 28 26 25 28
22 24 23 26 30 30 33 30 30 33 37 33 24 26 25 23 18 29 33 36 31 32 33 31 28 27 27
21 24 26 29 34 30 31 33 32 34 33 31 31 32 28 26 23 31 29 33 35 30 28 28 29 29 29
23 28 29 27 28 28 27 28 27 30 31 28 27 29 29 29 28 29 32 20 31 33 31 31 31 29 30
24 26 26 26 27 28 27 27 22 26 29 33 29 28 31 33 29 31 30 31 31 31 28 31 31 31 32
26 25 26 26 27 27 25 24 23 25 26 30 29 29 27 23 25 30 31 28 31 30 29 26 32 31 28
26 27 27 26 27 27 25 23 23 24 27 28 24 20 12 13 25 21 25 31 31 30 28 26 26 34 31

GFSFLT2_925_spd_060.txt.gz
Wind_Speed
20 28 29 31 32 32 29 32 31 28 27 28 27 28 30 30 30 30 31 31 32 33 33 33 34 34 34
22 25 27 29 31 28 31 31 31 30 28 28 30 30 30 28 28 30 32 32 32 33 34 34 34 33 32
23 25 28 29 28 28 28 29 30 27 29 29 30 27 26 28 31 32 31 31 32 32 32 32 32 32 32
23 23 25 25 26 26 26 27 29 29 31 28 26 25 30 33 32 31 31 29 30 30 31 32 32 33 32
19 19 19 23 24 26 26 29 29 31 29 24 23 31 35 32 30 30 29 28 30 32 34 33 32 32 32
18 19 22 24 27 25 26 25 10 25 16 31 31 31 32 32 29 30 33 32 31 31 31 31 30 29 28
25 23 26 29 31 30 26 20 24 33 29 28 31 32 31 32 31 32 33 31 28 28 28 27 27 28 30
27 31 31 28 26 25 27 27 27 29 28 19 28 32 32 32 34 31 27 25 25 26 30 31 30 29 29
23 24 25 28 29 26 23 20 20 24 29 24 18 28 32 34 25 22 22 25 30 31 29 28 29 30 30
23 32 29 28 23 20 24 21 21 15 11 9 22 18 9 17 16 28 32 32 29 29 31 29 28 26 26
28 28 28 27 24 25 25 24 24 24 32 25 20 23 18 18 20 28 31 36 33 33 30 28 26 23 25
21 23 23 27 31 30 31 29 28 34 38 32 21 24 26 23 19 27 31 33 31 32 30 29 25 25 26
21 23 24 29 33 31 29 30 31 34 35 32 29 31 28 26 24 32 31 30 34 31 27 27 27 27 28
23 26 28 28 28 29 28 27 26 28 35 30 26 29 30 29 29 31 32 21 31 33 32 30 30 28 29
22 24 25 25 27 28 27 27 22 26 29 34 30 29 31 33 29 33 31 32 32 32 30 30 30 30 30
25 23 25 26 27 28 25 23 23 26 26 30 29 28 25 25 29 33 33 29 31 30 28 26 28 29 29
25 27 27 25 26 26 25 23 24 25 27 29 25 19 11 13 25 22 28 32 32 31 28 27 28 32 30

GFSFLT2_925_spd_063.txt.gz
Wind_Speed
21 25 26 29 29 29 31 31 32 28 27 27 26 26 27 28 29 29 29 29 30 31 32 33 32 33 32
22 26 27 28 29 31 33 31 32 32 29 27 27 28 28 27 27 27 28 30 31 32 33 33 33 34 34
21 24 26 27 30 31 29 28 29 30 29 27 28 28 26 25 28 30 32 31 31 32 32 33 33 34 33
22 22 24 27 26 25 24 25 27 32 31 26 26 24 26 32 32 31 31 30 29 30 31 31 32 33 32
20 20 20 19 20 24 24 26 26 28 31 26 25 31 35 31 30 29 28 27 28 30 32 33 34 34 33
23 16 19 23 25 24 25 23 9 20 20 30 29 31 37 34 31 28 30 32 31 31 31 31 31 31 30
24 23 25 28 32 30 25 23 21 30 30 31 26 32 38 32 30 32 33 32 30 29 28 28 28 28 29
26 29 29 27 24 26 28 29 27 26 25 20 23 29 33 31 35 33 29 26 26 26 26 28 31 32 32
21 23 24 28 27 27 23 21 21 24 24 25 19 24 28 33 22 23 22 24 28 31 32 30 30 30 31
25 31 28 27 22 19 22 20 21 16 7 9 21 17 9 18 17 24 34 32 30 29 30 31 30 30 28
26 26 27 28 27 25 24 22 23 24 31 24 21 22 16 19 20 25 32 35 34 34 31 29 27 26 26
21 23 24 27 29 30 30 28 27 31 37 32 23 25 26 24 20 27 28 32 32 33 31 29 25 24 24
21 22 25 28 30 31 31 30 31 33 32 30 30 31 27 26 26 33 30 28 34 31 26 26 29 30 27
23 25 26 28 29 29 29 30 27 33 33 29 26 28 30 29 29 32 33 19 29 31 30 28 28 28 29
20 22 25 25 28 30 29 28 21 26 31 35 32 30 31 32 30 33 32 31 31 30 28 30 31 30 30
23 23 24 25 27 29 25 23 23 26 27 30 30 27 25 24 29 34 33 29 32 30 27 26 28 29 31
25 27 27 26 26 26 25 24 25 25 28 29 26 19 11 13 27 22 28 33 32 31 29 27 27 34 31

GFSFLT2_925_spd_066.txt.gz
Wind_Speed
16 22 25 26 27 26 28 29 32 31 27 27 26 26 27 28 28 29 29 29 28 28 29 29 30 31 31
20 23 24 27 27 28 29 30 32 31 28 27 26 26 26 26 27 27 26 27 29 30 31 32 32 32 32
18 21 25 26 26 29 30 31 28 31 29 26 24 25 24 24 26 28 30 32 32 31 32 32 32 33 33
23 22 22 23 23 25 24 26 29 31 33 25 23 25 26 30 30 30 29 29 29 29 30 30 31 31 32
19 17 18 18 20 24 25 27 26 27 27 28 29 31 36 32 32 30 28 27 28 28 30 30 31 32 33
19 15 18 23 24 24 25 22 12 19 20 31 30 34 37 35 31 28 30 30 31 31 31 31 31 31 31
22 23 23 27 29 28 22 21 24 28 30 34 26 31 33 34 29 31 33 31 30 29 27 28 29 29 29
22 24 24 25 24 25 28 29 26 24 22 20 27 27 31 30 32 30 27 27 25 25 27 28 29 29 32
18 19 21 24 22 23 24 19 18 22 24 21 20 27 30 32 18 21 23 26 29 32 32 31 30 31 32
22 26 23 22 21 18 19 19 19 13 8 7 21 18 10 17 18 26 31 32 31 31 31 31 30 31 29
23 23 23 24 23 23 23 21 20 20 32 21 17 23 17 19 20 24 31 35 36 35 33 30 28 26 28
21 23 24 26 26 26 25 25 26 29 35 30 19 23 24 25 22 26 27 33 33 34 32 32 25 24 25
21 23 25 25 27 29 30 30 32 33 30 27 27 30 26 25 26 33 29 30 34 31 28 29 32 29 27
23 25 25 27 29 28 30 32 28 36 32 26 23 26 29 29 29 32 35 18 28 32 28 27 28 28 28
23 23 26 27 30 30 29 27 20 25 31 38 31 28 30 30 30 33 31 31 31 31 26 28 31 30 31
24 24 25 27 28 29 26 22 22 26 27 30 31 29 26 22 27 35 32 29 33 30 26 24 30 30 30
24 26 26 26 24 27 26 23 24 25 27 28 26 21 12 13 29 21 29 32 30 30 28 27 28 36 27

GFSFLT2_925_spd_069.txt.gz
Wind_Speed
11 15 19 20 21 20 22 20 20 22 25 24 23 24 25 25 26 27 29 29 30 30 30 31 30 30 30
8 10 15 21 21 22 20 20 21 23 23 23 25 25 24 24 25 26 26 27 28 30 31 33 33 33 34
10 10 11 16 18 18 17 20 20 22 23 23 22 22 22 24 26 27 29 31 32 32 32 33 33 33 34
12 14 12 15 16 16 21 20 21 22 25 21 22 23 27 27 27 28 28 29 30 30 31 31 32 33 33
12 14 15 17 19 20 21 21 22 25 21 19 24 26 29 27 26 25 26 27 28 29 30 31 31 31 31
12 14 18 19 19 18 22 21 14 16 18 27 27 28 28 23 24 27 30 31 30 29 31 31 31 31 31
17 18 19 19 22 21 20 21 22 31 28 27 26 26 24 24 27 30 31 30 29 27 26 26 26 26 28
15 17 17 18 18 21 23 23 23 26 19 17 23 24 26 25 28 27 25 26 27 27 27 27 28 29 30
14 16 18 20 18 18 18 17 15 22 22 17 20 26 28 29 18 18 21 25 29 31 30 29 28 29 30
17 21 19 19 17 12 12 15 16 13 7 6 22 20 10 17 14 24 26 26 28 29 30 30 29 28 27
16 16 16 15 14 13 14 14 16 18 27 18 16 22 15 19 21 23 28 32 28 29 27 26 24 23 25
12 13 15 16 19 22 23 23 21 27 33 27 17 20 22 24 23 26 27 31 29 27 24 23 23 23 24
12 14 15 18 22 25 26 26 29 29 26 22 23 27 24 25 26 34 28 26 31 28 22 22 25 22 24
13 15 16 18 20 22 24 27 26 29 24 21 18 22 27 28 27 32 31 16 27 28 27 28 27 25 27
13 15 17 18 22 23 22 20 18 24 29 31 24 23 27 30 30 28 29 30 29 30 26 29 28 27 27
15 14 16 19 23 24 20 20 20 22 24 27 28 26 21 20 26 33 29 29 32 28 26 26 30 27 26
16 18 17 20 20 23 23 21 21 22 24 25 24 20 11 13 22 17 24 29 31 29 26 25 27 32 26

GFSFLT2_925_spd_072.txt.gz
Wind_Speed
14 17 17 16 13 15 17 19 19 19 21 22 21 21 23 25 25 24 25 27 28 28 29 29 30 31 31
10 11 14 14 14 17 17 18 18 20 21 22 22 23 23 22 23 24 25 27 28 29 30 31 32 33 34
9 11 15 14 15 17 18 18 18 20 20 21 21 21 22 23 25 27 28 28 29 29 30 31 32 33 33
11 12 15 13 15 17 18 17 19 19 20 20 20 20 23 24 26 27 27 26 26 27 28 29 30 31 32
12 13 14 14 15 16 18 18 21 20 18 16 20 23 24 24 24 23 23 25 27 27 29 30 32 32 33
12 14 15 15 15 15 18 18 14 16 13 24 23 24 25 24 25 28 29 29 28 28 29 30 29 30 31
15 16 16 15 14 16 16 17 19 24 22 23 23 24 22 24 26 30 31 30 28 27 26 27 29 28 28
14 16 15 14 16 17 20 21 22 22 18 19 24 23 24 26 29 30 29 28 27 27 27 28 29 30 30
13 15 15 17 16 15 16 17 17 22 21 17 18 23 26 31 22 20 22 24 27 30 31 30 29 29 31
11 13 12 12 12 11 11 13 15 13 7 7 19 20 8 21 16 24 23 23 27 30 30 29 28 28 27
11 11 10 10 10 9 11 13 15 18 24 16 16 22 17 20 22 24 29 29 25 27 27 26 24 22 24
10 11 12 12 12 13 16 16 17 25 31 23 15 19 21 24 21 24 25 29 28 26 22 23 24 24 25
11 13 13 15 17 16 19 20 20 23 24 22 22 24 22 25 27 34 28 26 30 25 20 22 24 24 25
12 14 14 13 16 16 19 21 23 23 19 22 21 22 25 26 27 31 29 17 27 28 28 27 27 27 28
11 13 13 13 15 16 17 21 20 24 26 24 19 22 27 30 33 27 29 28 29 30 28 29 29 28 29
12 12 13 14 16 18 18 19 21 22 24 27 26 26 24 22 28 32 28 28 30 28 27 25 28 26 24
12 13 13 14 17 19 21 20 22 22 23 27 24 21 12 12 22 20 27 28 30 29 26 24 27 33 26

GFSFLT2_925_spd_075.txt.gz
Wind_Speed
8 9 13 14 13 11 13 17 19 19 19 21 23 24 23 25 25 25 24 24 24 24 25 25 25 25 26
5 6 9 6 11 18 17 14 18 19 20 21 23 23 24 24 24 25 25 24 25 26 26 26 27 27 28
4 6 10 11 11 14 15 18 17 18 20 20 21 22 23 23 24 25 25 25 25 25 25 26 27 28 29
7 8 9 12 11 14 15 14 19 19 20 22 21 19 21 23 25 25 25 24 23 23 23 25 26 27 28
8 8 8 11 11 12 15 16 19 21 19 19 17 24 25 24 24 24 22 23 24 25 26 27 28 29 30
7 9 12 12 12 13 12 14 10 13 14 25 22 26 26 27 25 25 26 26 27 27 26 25 26 26 27
11 12 13 12 13 16 14 15 19 23 22 24 25 25 27 28 26 27 29 29 28 26 25 25 24 25 26
10 13 13 13 13 15 17 19 21 23 18 18 26 24 28 28 29 30 28 25 25 25 24 25 26 27 29
12 13 14 14 15 16 16 15 15 19 21 17 16 21 29 35 26 20 22 24 28 28 27 26 27 29 30
10 11 10 11 11 13 14 14 12 11 3 7 19 17 8 22 15 24 31 25 25 26 28 26 26 26 26
10 10 10 9 10 10 11 14 16 19 24 17 15 22 15 17 23 24 28 29 26 25 27 25 23 21 24
10 10 10 11 12 12 15 17 19 26 30 24 18 18 20 25 22 23 26 29 28 26 25 24 23 22 23
10 12 12 14 16 15 15 17 20 22 25 24 25 26 24 24 27 30 26 31 31 21 23 25 26 27 28
11 14 15 15 15 15 18 20 22 25 21 21 22 23 27 27 28 33 29 19 30 31 29 30 30 29 30
12 15 14 14 15 15 18 22 21 25 26 22 21 21 26 31 32 30 30 30 31 32 30 31 28 28 30
13 13 14 15 15 17 19 20 22 24 24 26 26 25 22 22 24 32 28 28 29 29 28 27 31 28 27
14 15 16 18 18 19 20 20 22 22 24 25 24 20 11 12 23 19 26 31 31 28 26 26 29 35 29

GFSFLT2_925_spd_078.txt.gz
Wind_Speed
6 9 11 11 13 12 10 12 15 16 14 16 17 18 20 21 21 21 21 20 21 21 21 21 22 23 23
6 7 6 4 7 12 12 11 12 15 15 15 17 17 19 20 20 20 20 20 21 22 22 23 23 24 25
3 1 4 7 9 11 12 12 13 11 16 15 16 18 19 18 19 20 21 21 22 23 22 22 23 23 25
1 4 7 6 8 12 11 9 17 17 19 19 15 15 16 19 23 21 21 21 20 19 20 21 23 25 26
3 6 5 9 9 5 10 13 22 21 12 15 18 22 21 24 22 22 19 19 20 22 23 25 25 26 26
4 7 7 6 10 9 12 17 6 5 16 30 24 25 27 27 23 21 22 22 23 24 25 25 25 25 26
8 9 10 8 12 15 13 15 18 24 21 28 24 23 28 27 25 24 25 26 24 22 21 21 22 24 25
8 12 14 13 11 14 16 19 24 22 13 15 22 25 27 30 30 22 20 19 20 22 23 24 23 24 25
8 10 10 10 11 14 15 14 14 15 21 16 11 21 31 27 18 16 19 22 25 23 23 24 25 25 25
10 9 8 9 9 10 13 12 11 9 1 12 21 14 12 16 13 30 26 28 23 24 25 23 23 24 24
8 9 9 8 8 9 9 11 15 17 20 16 15 23 11 18 23 24 26 28 34 27 25 20 18 18 23
8 8 9 10 10 11 12 14 15 21 26 23 20 23 23 25 24 26 31 32 27 31 24 20 21 20 21
8 10 9 12 14 13 13 15 17 21 22 22 23 26 26 25 28 31 28 31 30 19 26 29 31 30 30
10 11 12 14 14 13 15 16 20 21 20 19 19 22 26 27 28 33 30 18 31 32 32 31 30 32 32
10 14 16 15 16 15 16 20 18 19 22 21 21 23 27 30 30 29 30 31 30 31 31 30 29 29 30
13 14 15 18 19 18 18 20 18 20 21 25 25 23 21 24 26 31 27 28 31 29 28 28 32 29 27
13 15 17 18 17 18 21 18 18 20 22 23 22 20 10 11 26 21 27 30 31 31 29 27 30 34 30

GFSFLT2_925_spd_081.txt.gz
Wind_Speed
7 8 9 9 8 9 11 12 13 15 14 13 15 16 17 18 18 18 19 18 18 18 17 17 18 19 19
1 9 6 5 5 6 8 8 9 9 11 11 15 16 16 17 18 17 18 18 18 18 18 18 19 19 20
3 2 1 2 5 6 7 9 10 9 12 15 15 17 16 15 15 15 19 18 18 18 18 18 19 20 21
1 1 2 2 5 8 7 6 12 16 19 14 10 13 16 17 17 17 16 17 16 15 16 18 20 21 23
1 1 2 5 4 3 7 14 18 7 7 19 18 16 14 15 16 16 15 16 17 18 19 20 22 23 24
2 4 5 3 5 6 10 8 4 4 22 27 18 19 18 18 17 17 18 18 18 20 21 21 21 22 23
6 7 6 6 8 8 8 11 13 18 20 17 16 18 19 22 24 19 17 15 14 14 16 18 20 21 22
5 6 8 8 8 10 12 13 17 14 6 7 14 23 31 28 11 7 11 14 16 18 19 19 20 21 23
5 6 6 7 8 10 10 11 9 5 12 5 9 27 27 17 9 7 19 17 19 18 20 20 21 21 22
5 4 4 4 4 6 6 7 9 8 2 14 10 12 12 9 8 26 26 26 22 23 21 19 18 19 21
3 4 3 3 6 7 7 10 11 11 15 15 12 16 8 18 21 25 27 32 34 27 24 17 16 16 22
4 5 7 7 9 10 10 9 10 15 18 16 16 19 20 23 22 25 33 31 25 30 23 22 24 23 23
5 4 6 9 10 10 10 9 12 15 15 13 17 21 23 22 26 27 29 27 29 15 26 29 29 28 28
4 5 8 10 10 11 13 14 16 19 15 14 15 19 27 26 26 29 25 18 31 32 29 32 28 27 28
6 9 10 11 13 13 13 15 16 18 21 21 20 22 25 29 28 26 27 27 28 32 31 29 28 27 27
9 10 12 14 17 16 16 18 19 20 22 24 26 26 22 23 24 27 26 28 32 30 28 25 30 28 28
10 12 14 16 15 19 20 20 20 22 24 26 26 20 9 10 27 17 21 28 29 28 27 26 30 33 30

GFSFLT2_925_spd_084.txt.gz
Wind_Speed
4 6 6 6 5 4 6 9 11 11 12 13 13 14 15 16 17 16 16 17 17 17 17 17 18 18 19
3 2 2 2 1 3 4 8 9 8 9 11 11 15 15 16 16 16 16 15 15 16 17 19 19 19 20
4 3 2 2 3 5 6 7 8 8 9 15 16 16 14 12 13 14 14 16 16 16 17 19 19 19 20
4 2 1 2 3 5 6 4 9 13 16 8 10 13 15 15 13 13 14 15 15 16 17 18 19 20 21
4 2 2 2 3 2 6 11 15 8 8 12 17 13 10 10 11 12 12 14 16 17 19 20 21 22 23
2 2 3 3 4 6 8 8 5 4 17 24 16 11 10 12 15 14 16 16 16 17 19 20 21 21 22
3 4 5 5 6 9 9 9 10 15 17 15 14 13 16 20 18 13 9 9 11 13 16 18 19 22 24
4 5 6 6 7 7 8 9 11 15 6 6 12 22 27 20 5 3 3 12 14 15 16 17 20 21 23
4 5 5 6 7 9 8 8 7 4 8 4 12 25 24 8 2 4 17 18 17 17 18 19 20 20 22
6 6 5 4 5 6 6 5 4 4 2 9 8 11 11 8 8 24 22 18 22 20 20 17 17 17 19
3 3 3 4 5 7 8 8 9 11 11 10 8 12 8 13 18 20 19 29 27 21 20 15 15 15 20
3 3 4 4 7 8 9 9 11 13 14 13 13 17 18 20 16 21 28 29 21 24 16 21 23 23 20
4 3 5 7 9 9 10 10 13 15 15 14 18 22 22 19 21 25 24 19 25 12 26 27 28 27 27
4 6 7 10 9 10 13 13 16 19 12 12 14 17 25 25 25 29 26 16 25 30 29 33 31 28 27
7 9 10 10 12 12 12 14 16 17 22 19 15 19 24 27 28 26 26 24 26 31 32 33 32 29 27
9 10 11 12 15 14 14 17 20 21 23 23 23 26 22 19 22 27 24 26 30 30 28 26 30 27 25
12 11 13 14 14 17 18 19 22 22 23 23 22 16 8 11 18 17 19 24 31 28 25 24 27 31 30

GFSFLT2_925_spd_087.txt.gz
Wind_Speed
2 3 5 5 5 7 7 6 6 8 10 9 10 11 12 14 15 15 15 16 16 18 18 18 17 17 18
3 3 3 3 3 2 3 3 6 6 6 7 9 10 14 15 16 16 15 15 13 15 17 18 18 18 18
5 4 3 3 2 2 3 4 6 7 7 10 14 14 13 12 13 14 15 16 16 16 16 17 18 18 19
6 6 3 2 1 2 3 3 7 11 14 15 11 11 14 13 12 13 12 13 15 15 15 16 18 19 20
6 3 3 1 1 2 4 10 13 11 7 8 13 16 10 8 9 11 12 12 14 16 17 18 19 21 21
4 2 1 2 3 4 5 6 5 3 14 21 14 8 6 9 13 15 15 14 13 13 14 16 17 18 19
1 2 2 3 3 6 7 6 7 11 16 14 11 8 12 17 19 15 7 4 8 12 15 17 18 19 21
2 3 3 4 4 5 6 8 11 13 6 5 11 18 24 19 9 4 4 6 16 14 16 17 18 20 22
3 4 3 4 6 7 8 8 6 5 7 5 8 25 21 7 3 4 5 20 15 17 18 18 20 20 21
7 7 6 4 5 5 5 5 3 6 3 7 11 11 11 8 3 14 22 13 21 21 20 17 17 17 18
4 3 3 4 4 5 6 7 7 9 9 10 10 14 8 11 19 22 13 26 27 20 17 12 13 14 19
3 3 4 4 6 8 8 9 11 14 14 14 13 15 19 19 16 20 28 28 21 24 13 18 20 20 20
4 4 3 6 7 8 8 10 13 15 16 18 20 23 24 20 21 27 23 21 28 12 19 28 27 27 29
4 4 6 7 9 9 12 13 15 16 14 12 15 19 24 26 23 30 27 15 24 26 27 31 32 30 28
7 8 9 10 10 10 12 12 15 20 19 18 14 15 20 25 25 28 29 27 25 27 29 32 34 31 27
10 11 12 12 14 13 12 15 19 22 23 22 20 22 16 15 17 25 25 28 28 29 28 25 29 29 29
13 14 14 15 14 17 17 18 21 23 23 20 20 16 8 8 17 18 26 24 28 30 26 25 27 33 31

GFSFLT2_925_spd_090.txt.gz
Wind_Speed
3 3 4 5 7 9 9 9 8 8 7 7 7 7 8 9 10 11 11 12 13 14 15 15 15 16 16
3 3 2 4 4 4 4 5 3 5 5 6 6 6 8 11 12 12 11 11 12 12 14 15 17 17 17
5 4 3 4 3 3 4 4 4 5 7 9 10 11 12 11 9 10 12 12 12 14 15 15 15 16 16
7 6 4 3 3 3 4 3 5 8 11 13 11 11 11 13 12 11 12 12 13 13 14 14 16 17 18
7 3 3 3 3 1 3 7 10 9 6 6 9 12 13 10 8 9 11 12 12 14 15 16 17 17 18
4 3 3 2 1 2 4 5 4 3 11 16 11 5 6 6 10 13 15 14 11 10 12 13 14 16 17
2 2 2 2 1 3 5 3 5 9 14 9 7 6 6 15 18 16 9 3 3 11 13 13 15 16 17
1 1 1 2 2 3 5 7 10 9 4 4 9 13 17 12 4 2 4 4 13 15 13 15 17 18 19
0 0 1 1 4 5 6 6 4 2 5 4 7 20 14 4 2 1 4 10 20 14 19 18 18 19 19
4 5 4 3 2 3 3 2 2 3 3 10 9 12 9 6 2 11 15 11 16 23 19 16 15 16 17
3 2 2 3 2 2 3 3 4 7 9 7 7 12 6 10 19 20 9 21 27 20 16 12 10 12 18
2 2 2 3 3 6 6 6 8 12 12 11 9 12 15 17 14 18 27 30 20 26 13 11 17 19 18
3 3 2 3 6 6 6 7 10 12 13 14 17 20 22 20 21 26 22 25 28 10 24 24 22 25 28
4 3 5 7 8 7 9 10 13 13 10 11 12 15 21 25 26 29 25 15 30 30 27 27 27 29 28
5 7 8 10 10 10 11 13 14 18 20 15 12 14 19 24 27 31 32 30 27 28 27 30 32 31 26
10 10 12 13 14 14 13 14 17 20 22 21 18 17 15 16 19 25 23 25 26 26 27 28 31 31 27
13 13 14 15 14 16 15 16 19 21 23 21 19 15 6 6 17 18 25 27 26 32 28 27 28 35 31

GFSFLT2_925_spd_093.txt.gz
Wind_Speed
5 4 3 4 6 6 8 9 10 9 7 6 6 6 5 5 6 8 8 10 11 11 12 11 12 12 13
6 5 3 4 4 3 3 4 4 3 3 3 4 5 7 8 9 10 10 10 11 11 11 12 12 13 13
6 6 3 4 4 4 3 3 4 5 6 8 9 10 11 11 10 9 10 10 10 10 11 12 12 12 12
5 5 5 5 5 3 2 4 5 7 10 12 11 12 12 11 11 11 10 10 10 10 10 11 13 14 14
5 4 4 3 3 2 1 5 8 8 5 6 7 10 11 10 8 8 8 9 10 11 12 13 13 14 13
4 3 3 3 3 2 2 2 2 2 7 8 6 3 4 6 7 11 14 15 12 8 9 10 12 14 15
3 2 2 3 3 3 4 3 3 5 8 4 3 3 4 9 15 16 12 7 5 6 10 11 12 14 16
3 3 2 2 3 3 3 5 6 4 2 3 5 6 10 8 2 2 2 8 5 10 12 13 16 17 17
3 2 1 1 4 4 4 3 2 1 3 2 4 9 8 3 3 5 6 9 12 15 18 18 17 17 16
3 4 4 4 4 4 4 3 2 2 2 6 4 6 5 4 6 7 12 14 9 21 19 16 13 12 12
2 3 4 6 5 3 3 3 3 6 4 5 5 6 4 7 10 13 12 8 22 19 16 11 8 10 14
3 4 5 6 5 5 7 7 7 10 11 9 6 6 9 13 11 7 14 18 16 17 11 12 17 16 15
5 5 6 5 5 7 6 6 9 12 12 11 13 13 13 14 16 19 18 15 24 11 20 18 18 17 19
5 5 5 5 6 6 7 8 10 11 6 8 10 12 16 17 18 26 21 13 24 23 21 19 18 17 19
7 7 7 7 7 7 9 9 11 13 12 12 12 15 19 22 21 22 24 22 22 22 19 20 23 20 19
11 9 8 8 9 10 10 9 12 14 16 13 16 15 12 16 19 22 17 18 19 19 18 19 27 21 17
12 13 12 11 10 10 11 12 13 14 15 13 14 9 10 9 15 17 20 18 20 24 21 19 22 29 22

GFSFLT2_925_spd_096.txt.gz
Wind_Speed
6 5 3 3 2 2 4 4 6 9 9 8 8 7 6 4 5 6 7 8 10 9 9 8 9 9 10
6 5 4 4 3 2 1 2 2 3 4 4 5 7 7 8 9 9 9 9 8 8 8 8 9 9 9
6 5 3 4 4 3 3 2 2 4 7 9 9 11 10 11 12 12 10 10 9 9 8 8 8 9 9
5 6 5 4 5 3 3 1 1 5 8 11 11 12 13 14 13 11 11 10 9 8 8 8 10 11 11
6 5 5 6 5 3 2 2 4 5 7 6 6 7 8 10 11 10 9 9 9 10 10 10 10 10 10
5 6 5 4 4 3 2 3 3 4 4 6 7 6 6 6 10 11 12 13 13 12 8 9 11 12 13
5 4 5 4 5 4 3 3 4 4 5 6 5 6 6 7 13 16 18 16 10 7 8 10 11 12 14
4 4 3 4 3 3 3 3 5 4 2 4 4 7 7 9 12 7 2 4 9 9 10 11 14 18 18
4 4 4 4 5 3 3 3 3 3 2 3 3 8 8 7 6 7 7 8 11 14 16 17 20 16 16
2 2 3 3 5 4 4 3 2 3 2 3 5 5 5 4 5 7 8 11 15 13 16 22 18 16 14
3 3 4 5 3 3 2 2 3 5 1 2 4 5 4 7 9 9 11 11 11 15 14 14 9 9 13
4 5 5 5 4 3 3 5 6 9 10 8 5 4 7 10 10 6 11 14 15 14 13 11 15 17 17
5 5 5 5 6 5 7 7 8 10 12 11 11 11 12 11 14 16 15 10 20 16 11 15 17 16 20
6 5 5 5 5 6 6 6 8 9 9 9 10 12 13 15 16 22 17 13 15 21 21 20 18 17 18
7 7 7 7 8 7 8 8 10 10 9 8 8 12 14 16 18 22 22 20 19 20 17 21 21 18 19
8 8 8 8 9 9 10 11 11 11 11 9 9 10 11 15 19 23 17 16 17 16 17 20 28 20 18
10 11 10 10 10 10 10 10 12 12 12 10 9 9 10 8 13 16 20 19 18 20 21 21 25 28 20

GFSFLT2_925_spd_099.txt.gz
Wind_Speed
7 7 4 4 5 5 4 5 5 8 9 9 9 10 8 6 5 5 4 5 6 6 6 6 7 7 8
8 6 5 6 6 3 3 3 4 4 6 6 6 6 7 7 7 7 7 7 6 6 6 6 7 7 7
7 8 6 5 4 4 4 3 4 4 5 6 7 8 9 9 9 10 10 9 7 6 6 6 6 7 8
5 8 8 8 8 5 2 2 3 4 5 7 9 10 11 11 11 11 10 9 8 7 6 7 8 9 10
8 7 8 7 7 6 4 4 4 7 6 6 7 6 6 8 8 9 8 8 8 7 8 10 9 9 9
7 9 8 8 7 5 5 3 2 5 3 3 7 6 5 5 7 9 10 10 11 11 11 8 9 9 11
8 5 8 6 8 7 5 4 3 1 5 5 4 3 5 6 10 12 13 16 17 12 9 8 9 11 13
7 7 7 6 6 5 5 4 4 4 2 2 2 4 5 7 12 13 8 6 4 8 9 11 12 15 19
6 5 6 8 6 4 4 4 3 3 1 1 3 8 8 9 8 11 7 6 7 11 15 16 16 20 21
3 4 3 4 6 6 6 6 2 1 2 1 3 6 6 4 6 7 7 7 11 15 14 15 19 19 19
5 4 6 4 3 4 5 6 5 4 2 2 1 3 4 7 10 8 10 13 13 14 17 15 14 14 15
6 7 6 6 6 5 5 5 6 8 8 7 4 4 5 7 8 7 10 13 17 16 15 16 13 13 18
7 7 7 8 8 6 6 7 7 8 9 10 12 11 12 11 12 15 15 7 19 13 11 15 18 22 24
6 6 8 6 6 6 6 5 6 8 8 9 11 13 14 15 17 24 18 11 15 22 21 19 20 19 20
8 9 8 8 8 7 7 7 9 9 9 10 11 11 15 18 19 23 24 22 19 19 19 20 21 22 22
10 10 11 11 10 9 9 11 12 11 11 11 12 14 15 17 21 27 22 19 17 18 19 21 26 26 19
14 13 13 13 11 11 12 13 13 13 14 12 12 12 9 6 12 16 23 22 19 21 21 22 25 30 23

GFSFLT2_925_spd_102.txt.gz
Wind_Speed
9 8 7 6 8 5 6 5 4 7 7 7 8 7 7 7 5 5 6 4 3 3 2 2 3 4 5
10 9 7 8 9 7 7 7 5 5 7 5 6 5 5 6 6 6 6 6 5 4 3 2 2 3 3
8 10 8 11 9 7 6 5 5 4 4 4 6 6 7 7 7 8 8 8 6 5 3 2 2 3 4
9 9 9 9 10 9 6 4 4 3 4 4 5 7 8 8 9 10 9 7 6 5 4 3 3 5 6
11 7 8 9 13 9 6 8 7 6 6 6 5 6 5 5 6 6 7 6 6 6 5 5 5 5 6
11 11 10 9 11 10 10 7 3 5 4 3 5 6 3 4 5 5 6 6 8 8 8 7 7 7 7
12 11 12 12 12 11 10 9 4 4 4 2 3 2 2 5 7 7 8 10 12 13 9 8 6 6 8
11 10 10 10 9 10 10 7 5 5 3 2 1 4 6 6 8 9 9 6 4 4 6 5 8 10 13
8 8 8 7 8 9 9 8 3 4 2 2 2 6 7 8 8 7 5 3 4 5 7 10 13 12 16
9 8 8 8 8 6 8 10 4 4 4 2 3 4 3 1 1 3 4 3 5 8 10 9 12 15 18
7 7 7 5 7 7 6 10 10 3 3 3 1 2 3 5 7 3 6 7 8 10 12 15 12 12 17
9 9 10 7 7 6 6 6 8 7 7 5 3 3 3 6 6 5 11 11 14 14 13 14 15 15 15
11 11 10 10 10 9 9 7 7 8 10 9 9 9 10 9 10 13 14 9 12 4 14 18 21 20 21
10 10 11 12 12 9 7 5 5 7 7 8 9 9 13 15 17 19 14 10 13 22 17 18 18 16 18
11 13 12 12 10 10 9 8 9 7 7 7 9 10 12 14 18 20 19 20 20 17 15 19 23 23 23
15 15 15 13 12 14 11 12 12 11 11 9 9 10 13 16 20 24 18 18 16 16 18 22 31 27 22
17 17 16 15 15 16 16 15 16 15 14 11 11 11 7 5 10 11 20 21 20 20 23 26 27 29 25

GFSFLT2_925_spd_105.txt.gz
Wind_Speed
13 12 9 9 9 8 8 8 7 7 8 8 8 8 7 7 6 6 5 5 5 3 3 2 1 2 3
13 12 11 11 11 9 8 8 8 8 9 9 8 7 7 6 5 5 6 6 6 6 6 3 2 2 2
11 14 10 14 14 10 10 9 7 7 7 7 7 6 6 6 6 7 8 7 7 7 5 4 3 3 2
12 11 11 12 14 14 12 9 9 8 8 7 6 7 8 8 9 8 9 8 7 6 5 4 4 4 4
10 8 11 12 18 15 12 11 10 10 10 7 9 7 6 7 7 7 7 7 7 7 6 5 6 5 5
14 11 14 14 17 15 15 11 5 12 8 7 6 7 6 6 5 5 4 6 7 7 7 7 7 8 6
14 13 14 16 18 18 16 13 8 7 6 4 6 5 5 5 4 3 5 7 9 11 11 9 9 6 6
11 12 12 14 14 14 14 11 9 8 5 4 5 5 6 6 5 5 6 6 5 5 7 7 5 8 10
8 9 10 11 12 13 15 15 5 7 7 4 5 5 5 7 8 7 5 4 4 6 4 6 9 10 11
10 10 9 9 10 10 12 16 7 5 8 5 4 3 3 5 5 5 5 4 5 6 7 7 8 12 14
9 10 10 9 9 8 9 11 12 4 8 7 5 3 1 2 5 6 6 7 8 8 9 11 10 9 14
12 11 11 10 9 8 7 9 11 9 8 7 4 5 2 2 3 6 8 10 11 11 7 8 8 12 14
14 12 11 9 9 8 7 6 7 7 8 10 9 8 8 6 4 9 10 5 9 4 7 14 14 15 16
14 12 11 13 12 8 6 7 6 5 5 6 7 9 11 12 13 18 14 9 7 12 13 13 11 11 15
13 13 14 14 13 12 9 8 6 4 5 5 8 10 12 13 15 18 15 16 16 14 12 17 17 18 19
15 15 16 15 13 13 13 12 13 11 10 8 8 9 10 13 19 22 15 16 11 13 14 16 24 24 23
19 19 18 17 15 17 18 16 16 14 13 11 12 12 9 3 6 10 15 14 15 16 19 22 27 28 26

GFSFLT2_925_spd_108.txt.gz
Wind_Speed
13 15 14 13 12 10 9 8 8 9 9 8 7 7 6 5 5 6 5 6 7 6 5 5 4 2 1
14 15 13 14 12 10 9 8 8 7 8 7 7 6 7 7 7 7 7 7 7 7 6 6 4 3 1
10 15 12 16 16 13 10 10 9 8 8 7 7 7 6 6 6 7 8 7 8 8 7 5 4 3 2
11 11 13 16 18 15 12 11 10 10 9 8 8 8 7 7 8 9 10 9 9 7 6 5 5 4 3
10 7 10 11 20 16 15 13 11 11 11 10 9 9 8 8 10 10 9 9 8 7 7 6 5 4 4
10 8 14 16 19 17 17 10 5 12 13 11 10 10 9 7 8 7 6 8 8 9 8 7 6 7 7
13 14 12 16 17 20 20 15 7 7 11 7 9 9 8 8 7 6 6 7 9 10 10 9 8 8 6
11 11 10 11 15 18 19 15 9 9 9 5 8 8 8 10 9 7 6 7 8 8 10 9 9 6 6
6 7 8 10 13 13 15 16 5 7 10 6 7 8 9 10 10 9 8 6 4 6 7 6 6 7 9
8 8 8 9 10 10 11 17 6 5 12 9 9 8 4 9 10 12 10 7 7 7 6 6 7 10 12
6 6 7 6 6 8 10 12 13 5 9 11 9 8 4 4 9 9 9 10 10 11 12 11 10 9 13
7 7 8 7 6 6 7 8 10 9 9 12 5 7 6 5 4 9 10 9 9 12 10 9 9 11 13
10 10 9 7 7 7 6 6 6 8 10 10 9 8 7 4 3 4 4 7 10 10 9 8 12 12 13
11 9 9 10 11 9 8 7 8 9 9 10 9 8 9 9 9 13 12 7 4 9 11 13 11 11 12
12 12 11 11 13 13 11 10 9 6 9 6 6 7 9 10 11 14 15 14 13 11 11 14 14 12 13
14 13 13 15 16 16 15 16 14 12 11 9 8 8 7 9 16 20 18 14 11 7 11 14 20 18 19
17 16 16 17 17 19 18 19 17 14 14 12 13 12 5 2 3 9 14 12 10 11 14 17 24 25 22

GFSFLT2_925_spd_111.txt.gz
Wind_Speed
11 13 14 14 14 12 11 10 9 9 10 9 7 6 6 6 6 8 7 7 6 5 5 5 4 3 2
12 13 14 16 13 14 12 11 8 8 8 8 8 7 7 8 9 9 8 7 7 7 7 5 5 4 2
14 12 13 14 16 14 13 11 9 9 8 8 7 8 8 7 9 8 8 7 8 7 7 6 5 5 4
12 9 11 11 18 18 15 13 11 12 11 11 9 9 8 8 8 9 8 8 8 8 8 7 7 7 5
10 9 10 11 22 20 16 13 13 14 13 11 11 11 10 10 11 11 10 9 9 9 7 7 7 6 4
13 10 15 17 20 20 18 9 6 14 15 14 12 12 10 10 10 10 9 8 9 9 8 8 7 6 6
15 15 11 17 17 20 20 16 9 7 16 10 13 11 10 9 9 9 8 8 8 9 10 9 8 7 7
9 10 11 9 15 16 18 16 9 9 12 6 10 10 9 9 10 9 8 8 8 10 12 11 9 10 7
5 6 7 7 10 13 15 17 5 8 12 6 7 8 9 11 12 11 9 7 6 5 6 9 10 7 9
1 1 4 6 8 9 10 18 7 6 12 10 9 8 5 11 14 14 11 8 8 6 7 7 8 11 12
4 3 4 4 5 7 9 12 13 6 7 13 10 11 4 4 10 12 13 12 11 12 13 13 12 11 12
7 6 6 5 5 5 6 8 10 9 8 13 4 10 8 6 4 12 13 12 11 13 14 14 14 13 13
11 10 9 7 7 6 6 6 5 7 8 10 10 7 9 5 4 7 8 12 13 14 12 13 13 13 15
10 10 9 10 10 9 8 7 6 7 7 8 9 10 11 11 11 11 11 5 7 9 12 15 13 14 15
11 11 11 12 13 12 10 9 7 5 9 8 6 6 8 9 11 14 13 14 11 13 14 16 16 14 14
14 13 14 14 15 14 14 13 11 8 7 9 8 7 8 11 19 20 17 16 14 12 9 11 15 11 14
18 18 16 17 16 18 17 15 13 11 10 11 12 12 4 2 2 12 15 9 10 11 11 13 19 21 18

GFSFLT2_925_spd_114.txt.gz
Wind_Speed
9 11 13 14 14 13 13 14 12 10 9 10 9 9 8 8 8 8 7 8 9 7 9 8 8 6 4
10 13 14 15 14 15 15 14 12 10 8 9 8 8 7 7 8 10 10 10 10 11 9 8 7 6 5
13 12 13 14 16 16 16 16 13 11 8 9 7 8 9 10 10 10 10 9 10 9 8 7 7 7 6
11 11 13 12 19 19 17 16 15 12 11 11 11 10 9 8 9 10 10 9 9 9 8 7 8 8 7
12 9 10 10 20 20 21 16 15 15 15 13 12 13 12 12 11 11 10 10 10 10 8 8 9 9 8
12 13 17 16 16 20 20 11 7 16 16 15 14 14 13 13 12 12 11 10 10 11 9 9 9 9 8
11 12 12 14 15 17 20 15 8 7 19 14 16 15 14 13 12 11 11 11 11 10 11 11 9 8 8
9 11 11 11 10 12 17 15 9 9 15 8 13 14 13 13 12 10 11 11 11 11 11 11 10 8 9
7 7 7 7 7 10 12 16 4 7 15 7 9 10 11 11 13 13 11 11 10 10 11 12 11 10 9
5 4 3 2 4 7 8 17 6 5 13 11 11 9 5 13 15 16 14 12 9 7 8 10 11 12 12
4 4 3 2 2 4 7 11 11 5 8 15 12 13 5 5 14 17 16 14 12 12 12 11 13 12 11
5 6 6 5 4 4 5 8 10 10 9 15 6 13 10 7 5 15 16 15 15 15 15 15 15 15 14
8 8 8 7 6 5 4 4 5 6 9 13 12 10 12 7 6 10 12 16 16 16 16 17 17 17 17
8 8 9 8 8 7 6 5 4 6 8 8 8 9 10 11 10 9 12 7 15 17 17 17 18 17 17
10 9 10 10 10 10 9 7 6 5 9 9 9 8 9 12 13 17 16 17 16 13 14 16 18 19 18
12 11 11 12 12 13 13 11 11 10 10 10 10 7 9 10 17 17 12 14 14 15 15 14 15 14 16
14 14 14 14 12 14 16 15 15 14 13 11 12 11 3 2 2 12 18 13 15 16 16 17 14 12 14

GFSFLT2_925_spd_117.txt.gz
Wind_Speed
7 10 11 13 14 15 14 15 15 14 13 12 11 10 9 11 11 10 11 10 11 9 8 10 11 10 8
10 13 12 13 15 15 16 16 17 16 14 12 11 11 11 11 10 11 11 13 10 11 10 10 10 9 7
12 14 14 15 15 16 17 18 17 16 13 11 10 11 11 11 13 13 13 11 13 12 9 10 10 9 8
12 11 12 12 15 19 19 19 17 16 14 11 11 11 11 12 12 13 12 11 12 10 9 9 11 10 10
12 9 10 12 14 15 22 21 18 17 16 14 14 13 13 12 12 12 10 11 11 10 10 10 11 11 11
11 10 14 16 15 15 16 12 6 18 18 18 16 15 15 14 13 13 11 12 12 12 11 10 11 11 10
10 10 9 8 10 15 17 15 8 7 21 15 17 17 16 15 15 14 14 12 12 12 12 12 12 11 12
6 9 10 11 10 10 13 16 11 9 16 7 13 16 16 16 15 14 13 13 13 12 13 14 13 11 12
5 6 6 6 6 7 7 13 6 7 14 6 7 10 12 13 14 13 13 13 12 12 12 14 15 12 11
5 4 4 4 2 3 6 12 4 4 12 11 9 8 3 10 15 16 15 12 12 12 12 14 15 15 14
4 4 4 3 2 2 4 8 10 7 4 16 10 11 5 3 13 17 19 16 15 13 12 13 15 17 13
5 5 5 5 4 3 4 6 8 10 8 14 6 12 9 5 4 17 21 19 17 17 17 16 16 13 14
6 6 6 6 6 5 4 4 5 6 9 12 13 9 11 7 4 8 14 20 21 20 20 20 20 19 19
8 7 7 6 6 6 5 4 4 5 6 8 9 10 10 12 10 7 14 8 20 21 19 19 20 20 20
9 9 9 8 8 8 8 6 6 4 6 8 8 9 11 12 12 15 14 15 12 14 18 18 19 20 21
12 12 12 11 10 10 11 10 10 9 8 7 8 6 8 13 19 18 15 19 19 18 18 15 18 17 19
15 15 15 14 12 13 13 13 12 12 11 10 9 6 5 3 2 13 17 16 13 15 17 16 14 8 10